STARLINK-4312, 53065

Orbit data source: Space-Track

STARLINK-4312, 53065 is a payload satellite owned by SpaceX/Seattle (US) in SSO that was launched on Mon, 11 Jul 2022 UTC via an FALCON 9 launch vehicle from the Air Force Western Test Range (AFWTR). Payload-class satellites include a variety of spacecraft equipped with specific instruments for various scientific and technological missions. These include communications satellites like Starlink; space stations such as the ISS; scientific satellites like the Hubble; Earth observation satellites from companies like Planet Labs, Umbra, and HawkEye 360; GPS; miniature CubeSats for education and research; and military/defense satellites.

Loading next visibility...
Identifier
53065, 2022-077Y
Orbit
SSO
Country
Flag of USUS
Related business
Manufacturer
SpaceX/Seattle
Mission
Operational Commercial Communications
Bus & Motor
STARLINK, Unknown motor
Mass
297 kg wet, ~275 kg dry
Launch date (UTC)
2022-07-11 (3 years ago)
Launch vehicle
FALCON 9
Launch site
Air Force Western Test Range (AFWTR)
Object type
Payload
Rocket body
Debris
Shape & HBR
Box + 1 Pan, 10.1 m
Radar Cross Section
13.562 m², Large (>1 m²)

Expand to show TLE details & history
Last TLE update: 20 hours ago

TLE from 20 hours ago
0 STARLINK-4312
1 53065U 22077Y   25349.22758544 -.00007166  00000-0 -55365-3 0  9996
2 53065  97.6006 167.5245 0001051  81.3952 278.7392 15.01283291188247
Epoch: 2025-12-15T05:27Z
TLE epoch observation values (Epoch: 2025-12-15T05:27:43.382Z)
Latitude
0.00006°
Longitude
1.46456°
Altitude
565.887 km
Speed
7.578 km/s
True Right ascension
11h 10m 05s
True Declination
0° 00' 00"
Sunlit
Object was in daylight at epoch
Visualization orbit readout
Latitude
Unknown
Longitude
Unknown
Altitude
Unknown
Speed
Unknown
Apparent Right ascension
Unknown
Apparent Declination
Unknown
Sunlit
N/A
Visualization observer readout
Local Sidereal Time
00:19:31
Azimuth
Unknown
Elevation
Unknown
Doppler factor
Unknown
Orbital elements
Apogee altitude
560.666 km
Perigee altitude
559.208 km
Semi-major axis
6,938.074 km
Eccentricity
0.00011
Inclination
97.6006°
RAAN
167.5245°
Arg. of periapsis
81.3952°
True anomaly
278.7273°
Mean anomaly
278.7392°
Eccentric anomaly
278.73325°
Mean motion
3.75565 °/min
Orbital period
95.86 mins
BSTAR
-0.00055365
Loading maneuver chart data...
Computing Atmospheric mass density...
Loading historical data...
Loading historical data...
Loading historical data...
Loading historical data...
Loading historical data...
Loading historical data...
Loading historical data...

Documentation

Showing up to 5 results
|